Location: Sevilla
(37.3933°N, 5.9839°W)
Time: 00:14:02
(UTC+02:00)

A-11 Canister half - Visible Passes

Search period start: 24 June 2024 00:00
Search period end: 04 July 2024 00:00
Orbit: 1524 x 1684 km, 47.3° (Epoch: 22 June)

Date Brightness Start Highest point End Pass type
(mag) Time Alt. Az. Time Alt. Az. Time Alt. Az.
24 Jun 10.8 23:18:28 10° W 23:23:42 16° SW 23:29:00 10° SSW visible
25 Jun 10.8 22:56:22 10° W 23:02:01 18° SW 23:07:45 10° SSW visible
26 Jun 10.8 22:34:20 10° W 22:40:21 19° SW 22:46:26 10° SSW visible
27 Jun 10.8 22:12:20 10° W 22:18:39 21° SW 22:25:05 10° S visible
